{"data":{"norad_id":57037,"intl_designator":"2023-085AK","name":"2023-085AK","alt_names":[],"object_type":"PAYLOAD","status":"ACTIVE","operator":null,"country":"PRC","launch_date":"2023-06-15","launch_site_code":"TAISC","launch_vehicle":null,"mission":null,"orbit_class":"UNKNOWN","rcs_meters":null,"size_class":null,"mass_kg":null,"dimensions":null,"purposes":[],"wikipedia_slug":null,"has_3d_model":false,"image_url":null,"decayed_at":null,"tle_current":{"epoch":"2026-09-21T20:59:29.911200Z","epoch_age_seconds":81130,"freshness":"FRESH","line1":"1 57037U 23085AK  26264.87465175  .00003733  00000+0  18219-3 0  9992","line2":"2 57037  97.4905   9.3076 0007308 121.9247 238.2699 15.18888035180989","mean_motion":15.18888035,"eccentricity":0.0007308,"inclination_deg":97.4905,"raan_deg":9.3076,"arg_perigee_deg":121.9247,"mean_anomaly_deg":238.2699,"bstar":0.00018219,"rev_number":18098,"period_min":94.806198140866,"perigee_km":504.16673898332,"apogee_km":514.23327074964,"semimajor_km":6887.3370048665,"source":"CELESTRAK","updated_at":"2026-09-22T09:00:25.999758Z"}}}